sat.trackr.live / text

‹ back to catalog

STARLINK-33889

NORAD 63829 · 2025-092AB

PAYLOAD ACTIVE UNKNOWN

§ Identity

Operator
Country
US
Launch date
2025-05-04
Launch site
AFETR
Launch vehicle
Mass (kg)
RCS (m²)

Purposes: comms

External: N2YO · Heavens-Above · Gunter

§ Orbital elements

Epoch: 2026-05-25T04:06:10.977696Z

Period
94.27 min
Inclination
43.0044°
Eccentricity
0.0002570
Mean motion
15.27589523 rev/d
Perigee alt
481.3 km
Apogee alt
484.8 km
Semi-major
6,861.2 km
B*
6.1309e-4
RAAN
100.4322°
Arg perigee
276.7011°
Mean anomaly
83.3548°
Rev number
6,025

§ Raw data

STARLINK-338891 63829U 25092AB  26145.17096039  .00016652  00000+0  61309-3 0  99902 63829  43.0044 100.4322 0002570 276.7011  83.3548 15.27589523 60256

JSON: /api/v1/satellites/63829 · /tle

For live sub-satellite position, see the globe view (requires WebGL).

§ Visibility from observer

Set your observer location to see the next 7 days of passes ≥ 10°. The values pass through the URL so the page stays shareable.

No JS? Fill the form by hand. The geolocation button needs JavaScript.